Regional Weather Roundup
Issued by NWS

Home | Current Version | Previous Version | Graphics & Text | Print | Product List | Glossary On
Versions: 1 2 3 4 5 6 7 8 9 10 11 12 13 14 15 16 17 18 19 20 21 22 23 24 25 26 27 28 29 30 31 32 33 34 35 36 37 38 39 40 41 42 43 44 45 46 47 48 49 50
105
ASUS43 KLOT 162258
RWRIL

ILLINOIS REGIONAL WEATHER ROUNDUP
NATIONAL WEATHER SERVICE CHICAGO/ROMEOVILLE IL
500 PM CST MON JAN 16 2017

NOTE: "FAIR" INDICATES FEW OR NO CLOUDS BELOW 12,000 FEET WITH NO
SIGNIFICANT WEATHER AND/OR OBSTRUCTIONS TO VISIBILITY.

* THESE STATIONS ARE NOT UNDER NWS QUALITY CONTROL. THEY ALSO MAY NOT
  REPORT WEATHER SUCH AS PRECIPITATION OR FOG.

ILZ001-002-007-009-015-016-024-170000-
NORTHWEST ILLINOIS

CITY           SKY/WX    TMP DP  RH WIND       PRES   REMARKS
MOLINE         NOT AVBL
STERLING*      RAIN      36  36 100 NE7       29.98R FOG     WCI  30
$$

ILZ003-004-008-010-011-017-018-170000-
NORTH CENTRAL ILLINOIS

CITY           SKY/WX    TMP DP  RH WIND       PRES   REMARKS
ROCKFORD       NOT AVBL
$$

ILZ005-006-012>014-019>023-170000-
NORTHEAST ILLINOIS

CITY           SKY/WX    TMP DP  RH WIND       PRES   REMARKS
CHICAGO-OHARE  LGT RAIN  36  34  92 E8        30.05S FOG     WCI  30
CHICAGO-MIDWAY NOT AVBL
AURORA         CLOUDY    37  36  93 E9        30.03F FOG     WCI  31
WAUKEGAN       LGT RAIN  36  35  96 E9        30.06F VSB 1/4 WCI  29
DUPAGE AIRPORT NOT AVBL
WHEELING       NOT AVBL
NORTHERLY ISL    N/A     33  32  96 NE5         N/A  WCI  29
$$

LMZ740>746-170000-
SOUTHERN LAKE MICHIGAN

STATION/POSITION SKY/WX   TEMP    WIND        PRES    VSBY  WAVE
                          AIR SEA DIR/SP/G                  HT/PER
                          (F)     (DEG/KT/KT) (MB)    (MI)  (FT/S)
HARRISON CRIB              36     100/ 12/ 13   N/A
BURNHAM HARBOR             34      60/  5/  6   N/A
CALUMET HARBOR             33      80/  5/  7 1017.4F
BURNS HARBOR               38     110/  9/ 11 1018.3F
MICHIGAN CITY              37     100/  5/  7   N/A
$$

ILZ025>027-034>036-040-047-049-050-058-095>099-170000-
WEST-CENTRAL ILLINOIS

CITY           SKY/WX    TMP DP  RH WIND       PRES   REMARKS
QUINCY         FOG       42  42 100 E9        29.90S VSB 1/4
$$

ILZ028>032-037-038-041>044-048-051>054-059>061-170000-
CENTRAL ILLINOIS

CITY           SKY/WX    TMP DP  RH WIND       PRES   REMARKS
PEORIA         NOT AVBL
SPRINGFIELD    NOT AVBL
TAYLORVILLE    NOT AVBL
$$

ILZ033-039-045-046-055>057-062-063-170000-
EAST-CENTRAL ILLINOIS

CITY           SKY/WX    TMP DP  RH WIND       PRES   REMARKS
CHAMPAIGN      FOG       45  44  97 SE10      30.00F VSB 1/4
MATTOON        CLOUDY    50  50 100 SE10      30.00F FOG
$$

ILZ079-100>102-170000-
SOUTHWEST ILLINOIS

CITY           SKY/WX    TMP DP  RH WIND       PRES   REMARKS
ALTON          RAIN      52  52 100 SE14      29.94R VSB 1
BELLEVILLE     LGT RAIN  54  54 100 SE8       29.93F FOG
$$

ILZ064>066-069>071-074>076-080>082-084>086-088>090-092>094-170000-
SOUTH-CENTRAL ILLINOIS

CITY           SKY/WX    TMP DP  RH WIND       PRES   REMARKS
CARBONDALE     NOT AVBL
MARION         CLOUDY    61  61 100 S92       30.00F
$$

ILZ067-068-072-073-078-083-087-091-170000-
SOUTHEAST ILLINOIS

CITY           SKY/WX    TMP DP  RH WIND       PRES   REMARKS
$$

ABBREVIATIONS USED IN REMARKS
   TC - TEMPERATURE IN CELSIUS
  WCI - WIND CHILL INDEX
   HX - HEAT INDEX
  VSB - VISIBILITY
$$





USA.gov is the U.S. government's official web portal to all federal, state and local government web resources and services.